星链-3049 (STARLINK-3049 )

导读

STARLINK-3049是美国SpaceX公司星链星座的成员,于2021年11月13日发射。作为低轨通信卫星,它搭载Ku/Ka波段通信载荷,采用氪工质霍尔推进器,具备自主避撞能力,服务全球宽带互联网接入。设计寿命5-7年,退役后会主动离轨坠入大气层焚毁,目前已在轨运行超4年,支撑星链星座全球覆盖能力。

基本信息
目录编号:
49436
目录名称:
STARLINK-3049
国际标识:
2021-104AE
轨道中心:
EARTH
卫星名称:
星链-3049
卫星全名:
星链-3049 (STARLINK-3049 )
卫星状态:
在轨 (已飞行1763 天)
发射日期:
2021-11-13 UTC
国别 :
美国 (US)
星等 :
--
该卫星已列入 空间交会检测服务 Space Conjunction Data Service (SCDS) ,当前飞行风险评估等级: 无高风险
轨道信息
数据来源 国际轨道数据
星历时间: 2026-09-11T14:00:02+0800
11小时前
查看轨道信息
半长轴: 6848.517km
偏心率: 0.0001737
轨道倾角: 53.160°
近地点辐角 83.069°
升交点赤经 93.290°
平近点角 27.302°
近地点: 469.19km
远地点: 471.57km
周期: 94.006分钟
每日圈数: 15.318209
详细信息
固有亮度:
5
最大亮度:
2.5
卫星平台:
Starlink v1.5
覆盖范围:
全球
运营商:
太空探索技术公司
运营商所在国:
美国
制造商(研发单位):
太空探索技术公司
制造商所在国:
美国
使用方式:
暂无
卫星简介
星链(Starlink)计划是由太空探索技术公司(SpaceX)提出的一个巨型低轨卫星互联网星座项目,计划在2019年至2024年间在太空搭建由约1.2万颗卫星组成的“星链”网络,其中1584颗将部署在地球上空550千米处的近地轨道,并从2020年开始工作。该卫星仍在工作。
2D轨道图
3D轨道图
轨道高度分析图
轨道倾角分析图
轨道综合分析图
查看轨道综合分析图
与全量物体交会距离演化趋势
与全量物体交会风险概率演化趋势